EW3708 Weather Reports


time (UTC)temp
C
wind
direction
speed
KPH
gust
KPH
rain 1hr
cm
rain 24hr
cm
rain mn
cm
humidity
%
barometer
mb
20260906223035 20 254 0.0 3.2 0.00 0.00 0.00 64 1015.3
20260906221540 20 254 0.0 3.2 0.00 0.00 0.00 64 1015.1
20260906220034 20 254 1.6 4.8 0.00 0.00 0.00 62 1015.0
20260906214540 20 264 1.6 4.8 0.00 0.00 0.00 62 1014.8
20260906213033 21 265 0.0 4.8 0.00 0.00 0.00 61 1014.8
20260906211535 21 254 1.6 4.8 0.00 0.00 0.00 62 1014.7
20260906210040 21 288 1.6 4.8 0.00 0.00 0.00 59 1014.7
20260906204535 21 252 3.2 6.4 0.00 0.00 0.00 58 1014.6
20260906203029 21 321 0.0 4.8 0.00 0.00 0.00 55 1014.5
20260906201530 21 294 1.6 6.4 0.00 0.00 0.00 53 1014.4
20260906200029 21 315 1.6 4.8 0.00 0.00 0.00 57 1014.4
20260906194528 21 287 3.2 6.4 0.00 0.00 0.00 55 1014.6
20260906193027 21 271 3.2 4.8 0.00 0.00 0.00 64 1014.5
20260906191539 21 323 0.0 4.8 0.00 0.00 0.00 64 1014.5
20260906190038 21 320 0.0 6.4 0.00 0.00 0.00 62 1014.5
20260906184525 21 304 0.0 3.2 0.00 0.00 0.00 64 1014.6
20260906183033 21 315 0.0 4.8 0.00 0.00 0.00 63 1014.8
20260906181533 21 307 0.0 4.8 0.00 0.00 0.00 65 1014.7
20260906180022 21 211 0.0 3.2 0.00 0.00 0.00 67 1014.8
20260906174522 21 156 0.0 3.2 0.00 0.00 0.00 67 1014.8
20260906173022 21 132 0.0 3.2 0.00 0.00 0.00 65 1014.8
20260906171521 21 119 0.0 4.8 0.00 0.00 0.00 67 1014.9
20260906170020 21 256 1.6 4.8 0.00 0.00 0.00 65 1014.9
20260906164518 20 290 1.6 6.4 0.00 0.00 0.00 67 1015.0
20260906163020 20 310 1.6 4.8 0.00 0.00 0.00 70 1015.2
20260906161513 18 169 0.0 3.2 0.00 0.00 0.00 77 1015.3
20260906160028 19 168 1.6 3.2 0.00 0.00 0.00 75 1015.3
20260906154509 18 146 0.0 4.8 0.00 0.00 0.00 77 1015.4
20260906153012 18 119 0.0 4.8 0.00 0.00 0.00 78 1015.5
20260906151507 18 228 0.0 4.8 0.00 0.00 0.00 79 1015.5
20260906150010 17 229 0.0 3.2 0.00 0.00 0.00 80 1015.5
20260906144502 17 232 1.6 3.2 0.00 0.00 0.00 81 1015.4
20260906143114 17 261 1.6 4.8 0.00 0.00 0.00 82 1015.3
20260906141558 17 191 0.0 3.2 0.00 0.00 0.00 83 1015.2
20260906140057 16 165 0.0 4.8 0.00 0.00 0.00 86 1015.1
20260906134554 16 126 0.0 3.2 0.00 0.00 0.00 87 1015.1
20260906133058 16 109 0.0 1.6 0.00 0.00 0.00 87 1014.9
20260906131556 16 146 1.6 3.2 0.00 0.00 0.00 89 1014.9
20260906130049 15 292 1.6 4.8 0.00 0.00 0.00 89 1014.9
20260906124547 15 215 0.0 1.6 0.00 0.00 0.00 91 1014.8
20260906123043 15 214 0.0 3.2 0.00 0.00 0.00 91 1014.5
20260906121544 15 213 0.0 3.2 0.00 0.00 0.00 92 1014.5
20260906120036 15 213 1.6 3.2 0.00 0.00 0.00 93 1014.3
20260906114536 15 213 0.0 0.0 0.00 0.00 0.00 94 1014.2
20260906113043 14 213 0.0 0.0 0.00 0.00 0.00 94 1014.2
20260906111536 14 213 0.0 1.6 0.00 0.00 0.00 93 1014.0
20260906110030 14 213 0.0 3.2 0.00 0.00 0.00 95 1013.7
20260906104528 13 213 0.0 1.6 0.00 0.00 0.00 94 1013.6
20260906103027 13 213 0.0 1.6 0.00 0.00 0.00 93 1013.3
20260906101526 13 213 0.0 1.6 0.00 0.00 0.00 93 1013.3
20260906100024 13 213 0.0 0.0 0.00 0.00 0.00 93 1013.1
20260906094531 13 213 0.0 1.6 0.00 0.00 0.00 93 1012.9
20260906093020 13 213 0.0 0.0 0.00 0.00 0.00 92 1012.8
20260906091527 13 213 0.0 0.0 0.00 0.00 0.00 92 1012.6
20260906090016 13 213 0.0 1.6 0.00 0.00 0.00 92 1012.6
20260906084523 13 213 0.0 0.0 0.00 0.00 0.00 92 1012.5
20260906083021 13 213 0.0 1.6 0.00 0.00 0.00 92 1012.4
20260906081530 13 213 0.0 0.0 0.00 0.00 0.00 92 1012.4
20260906080011 13 213 0.0 0.0 0.00 0.00 0.00 92 1012.3
20260906074511 13 213 0.0 0.0 0.00 0.00 0.00 92 1012.4
20260906073009 13 214 0.0 0.0 0.00 0.00 0.00 92 1012.3
20260906071508 14 214 0.0 0.0 0.00 0.00 0.00 92 1012.1
20260906070009 14 214 0.0 0.0 0.00 0.00 0.00 92 1012.1
20260906064505 14 214 0.0 1.6 0.00 0.00 0.00 92 1012.2
20260906063005 14 214 0.0 0.0 0.00 0.00 0.00 92 1012.2
20260906061504 14 214 0.0 0.0 0.00 0.00 0.00 91 1012.4
20260906060005 14 214 0.0 0.0 0.00 0.00 0.00 91 1012.2
20260906054501 14 214 0.0 0.0 0.00 0.00 0.00 91 1012.4
20260906053100 14 214 0.0 0.0 0.00 0.00 0.00 91 1012.4
20260906051559 14 214 0.0 1.6 0.00 0.00 0.00 91 1012.4
20260906050121 15 214 0.0 1.6 0.00 0.00 0.00 91 1012.5
20260906044557 15 214 0.0 0.0 0.00 0.00 0.00 91 1012.5
20260906043108 15 214 0.0 0.0 0.00 0.00 0.00 90 1012.5
20260906041555 15 214 0.0 1.6 0.00 0.00 0.00 90 1012.5
20260906040052 15 226 0.0 0.0 0.00 0.00 0.00 89 1012.3
20260906034551 15 226 0.0 0.0 0.00 0.00 0.00 90 1012.4
20260906033050 15 226 0.0 0.0 0.00 0.00 0.00 89 1012.3
20260906031549 15 226 0.0 0.0 0.00 0.00 0.00 89 1012.2
20260906030050 15 226 0.0 0.0 0.00 0.00 0.00 88 1012.2
20260906024545 15 226 0.0 0.0 0.00 0.00 0.00 88 1012.1
20260906023045 15 226 0.0 0.0 0.00 0.00 0.00 88 1012.0
20260906021604 16 226 0.0 0.0 0.00 0.00 0.00 87 1012.2
20260906020043 16 226 0.0 1.6 0.00 0.00 0.00 87 1012.1
20260906014543 16 229 0.0 0.0 0.00 0.00 0.00 86 1012.0
20260906013042 16 229 0.0 1.6 0.00 0.00 0.00 86 1011.9
20260906011540 16 229 0.0 1.6 0.00 0.00 0.00 85 1011.8
20260906010041 16 229 0.0 1.6 0.00 0.00 0.00 84 1011.5
20260906004541 17 229 0.0 0.0 0.00 0.00 0.00 83 1011.4
20260906003036 17 229 0.0 0.0 0.00 0.00 0.00 82 1011.3
20260906001535 17 229 0.0 0.0 0.00 0.00 0.00 81 1011.2
20260906000034 18 229 0.0 0.0 0.00 0.00 0.00 79 1011.0
20260905234534 18 229 0.0 1.6 0.00 0.00 0.00 78 1010.9
20260905233033 18 229 0.0 1.6 0.00 0.00 0.00 76 1010.9
20260905231533 19 229 0.0 3.2 0.00 0.00 0.00 76 1010.7
20260905230032 20 229 0.0 3.2 0.00 0.00 0.00 76 1010.7
20260905224535 20 229 0.0 1.6 0.00 0.00 0.00 73 1010.7